Regional Weather Roundup
Issued by NWS Mt. Holly, NJ

Home | Current Version | Previous Version | Text Only | Print | Product List | Glossary On
Versions: 1 2 3 4 5 6 7 8 9 10 11 12 13 14 15 16 17 18 19 20 21 22 23 24 25 26 27 28 29 30 31 32 33 34 35 36 37 38 39 40 41 42 43 44 45 46 47 48 49 50
000
ASUS41 KPHI 201010
RWRPHI

REGIONAL WEATHER ROUNDUP
NATIONAL WEATHER SERVICE MOUNT HOLLY NJ
600 AM EDT SAT SEP 20 2014

NOTE:  "FAIR" INDICATES FEW OR NO CLOUDS BELOW 12,000 FEET WITH NO
SIGNIFICANT WEATHER AND/OR OBSTRUCTIONS TO VISIBILITY.

 * = STATION DOES NOT REPORT PRECIPITATION (E.G. RAIN, SNOW, ETC.)
        OR FOG.

NJZ015>026-201100-
SOUTHERN NEW JERSEY

CITY           SKY/WX    TMP DP  RH WIND       PRES   REMARKS
POMONA         CLEAR     53  52  96 CALM      30.29R
RIO GRANDE*    PTCLDY    66  55  68 E6        30.28S
MILLVILLE      PTCLDY    53  51  93 CALM      30.28S
WRIGHTSTOWN    PTCLDY    52  52 100 CALM      30.28S
MOUNT HOLLY    PTCLDY    51  50  96 CALM      30.30S FOG
TRENTON        PTCLDY    54  50  86 N6        30.30S

$$
NJZ001>014-201100-
NORTHERN NEW JERSEY

CITY           SKY/WX    TMP DP  RH WIND       PRES   REMARKS
SUSSEX         MOCLDY    51  47  86 CALM      30.31S FOG
ANDOVER*         N/A     56  52  86 VRB5      30.30F
MORRISTOWN     CLOUDY    54  50  87 CALM      30.32S
NEWARK         MOCLDY    61  52  72 N6        30.31F
TETERBORO      CLEAR     57  50  77 NW3       30.31S
CALDWELL       CLOUDY    54  49  83 NW5       30.32S
SOMERVILLE     CLOUDY    53  50  89 NW5       30.30S
ALLAIRE*       CLOUDY    61  52  72 E5        30.30S
TOMS RIVER*    CLEAR     48  46  93 CALM      30.30S

$$
PAZ043-044-047-054-055-060>062-066>071-201100-
EASTERN PENNSYLVANIA

CITY           SKY/WX    TMP DP  RH WIND       PRES   REMARKS
PHILADELPHIA   MOCLDY    59  54  83 NE6       30.30S
NORTH PHILA    MOCLDY    56  51  84 CALM      30.32S
BLUE BELL      MOCLDY    54  54 100 CALM      30.30S
DOYLESTOWN     CLOUDY    54  53  97 NE5       30.30F
QUAKERTOWN*    MOCLDY    55  54  94 SE3       30.31S
POTTSTOWN      CLOUDY    56  53  90 NE3       30.31S
LANCASTER      CLOUDY    56  54  93 NE6       30.28S FOG
COATESVILLE    MOCLDY    55  55 100 CALM      30.30S FOG
READING        CLOUDY    58  54  86 SW3       30.28S
ALLENTOWN      CLOUDY    59  52  77 CALM      30.30S
MOUNT POCONO   CLOUDY    52  51  97 VRB5      30.30S FOG
HAZLETON       CLOUDY    55  54  94 SE8       30.30S
WILKES BARRE   CLOUDY    58  52  80 VRB5      30.26F

$$
DEZALL-MDZ008-012-015-019-020-201100-
DELAWARE AND EASTERN MARYLAND

CITY           SKY/WX    TMP DP  RH WIND       PRES   REMARKS
WILMINGTON     CLOUDY    61  57  87 E5        30.29S
DOVER          MOCLDY    65  61  87 NW1       30.25S
GEORGETOWN     CLEAR     57  54  89 CALM      30.27R
EASTON         PTCLDY    61  61 100 CALM      30.30R
PATUXENT       PTCLDY    61  59  93 NE5       30.24S
OCEAN CITY     PTCLDY    70  61  73 SE12      30.24S
WALLOPS ISLAND MOCLDY    69  63  81 E5        30.24S
CAMBRIDGE      CLEAR     59  55  88 CALM      30.25S
SALISBURY      CLEAR     59  55  87 CALM      30.25R

$$
PAZ001-021-NYZ056-072-MDZ011-DCZ001-201100-
OTHER NEARBY LOCATIONS

CITY           SKY/WX    TMP DP  RH WIND       PRES   REMARKS
HARRISBURG     CLOUDY    60  55  83 E5        30.27R
STATE COLLEGE  CLOUDY    61  57  88 SW9       30.22S
WILLIAMSPORT   CLOUDY    61  55  81 S17G26    30.21S
BINGHAMTON     CLOUDY    56  52  86 S7        30.22F
NEW YORK CITY  PTCLDY    59  52  77 CALM      30.34F
BALTIMORE      PTCLDY    62  60  93 CALM      30.26S
WASHINGTON DC  MOCLDY    65  59  81 CALM      30.26S

$$


USA.gov is the U.S. government's official web portal to all federal, state and local government web resources and services.